Когалы

Казахстан     44°28′21″N   78°40′09″E
В апреле 2022 года жителям России запретили посещать сайт meteo.paraplan.net по решению Генеральной прокуратуры. Аудитория сайта уменьшилась в 10 раз. Владельцы сайта не видят смысла в поддержке погодного сервера в таких условиях. Сайт будет закрыт в октябре.
темп.,
°C
ветер,
м/с
пор.,
м/с
влажн.,
%
обл.,
%
осадки,
мм/ч
давл.,
гПа
погр.,
м
25 сентября, вс
вс2500:00+12юв21515 0.1 101411
03:00+12вюв22490 0.0 101412
06:00+12юв22500 0.0 101411
09:00+17ююв22340 0.0 1013781
12:00+21юз22244 0.0 10122488
15:00+22з33195 0.0 10112812
18:00+19сз33241 0.0 101263
21:00+14всв11370 0.0 101511
26 сентября, пн
пн2600:00+13вюв22400 0.0 101612
03:00+13юв22400 0.0 101612
06:00+12юв22390 0.0 101612
09:00+19ююв23260 0.0 1015807
12:00+22юз46190 0.0 10152287
15:00+23з57170 0.0 10132728
18:00+20зсз23235 0.0 101438
21:00+14всв2227100 0.0 101611
27 сентября, вт
вт2700:00+14вюв2228100 0.0 101512
03:00+15ююв2227100 0.0 101411
06:00+10ссз2237100 0.0 101818
09:00+13ссз33505 0.0 1019731
12:00+16зсз36436 0.0 10181555
15:00+17зсз46355 0.0 10161775
18:00+14сз34365 0.0 1016161
21:00+9ссв1147100 0.0 101810
28 сентября, ср
ср2800:00+10в1145100 0.0 101715
03:00+10з1146100 0.0 101610
06:00+8вюв1149100 0.0 101610
09:00+12зюз233046 0.0 1016680
12:00+15зюз4623100 0.0 10141498
15:00+14зсз4623100 0.0 10141661
18:00+11сз3329100 0.0 1015282
21:00+8ссв113897 0.0 101710
29 сентября, чт
чт2900:00+8юв1135100 0.0 101610
03:00+9ю1133100 0.0 101612
06:00+7юв1140100 0.0 101712
09:00+10зюз233657 0.0 1017778
12:00+13зюз45285 0.0 10151420
15:00+14зсз4427100 0.0 10131540
18:00+9ссз3341100 0.0 1015453
21:00+6сз1153100 0.0 101614